When you browse on this site, cookies collect data to enhance your experience and personalize the content and advertising you see.
Visit our Privacy Policy to learn more. By continuing to use the site, you agree to this use of cookies and data.
  • In Spain
  • List of Countries
  • For 7 days
  • Water Temperature
  • Satellite Maps
  • Weather Map
  • Weather Widgets
  • user-avatar
    Login

    Hourly Weather Astana

    Today, 21 June, Friday

    Time Temperature Precipitation Wind Pressure Humidity
    00:00 +15°C° 0 mm 2 mps 729 mmHg 60%
    01:00 +14°C° 0 mm 3 mps 729 mmHg 62%
    02:00 +13°C° 0 mm 3 mps 729 mmHg 64%
    03:00 +14°C° 0 mm 2 mps 729 mmHg 64%
    04:00 +14°C° 0 mm 2 mps 728 mmHg 65%
    05:00 +14°C° 0 mm 2 mps 728 mmHg 66%
    06:00 +16°C° 0 mm 2 mps 728 mmHg 60%
    07:00 +18°C° 0 mm 2 mps 728 mmHg 54%
    08:00 +20°C° 0 mm 2 mps 728 mmHg 48%
    09:00 +21°C° 0 mm 2 mps 728 mmHg 45%
    10:00 +24°C° 0 mm 2 mps 728 mmHg 42%
    11:00 +25°C° 0 mm 2 mps 728 mmHg 38%
    12:00 +26°C° 0 mm 2 mps 728 mmHg 37%
    13:00 +26°C° 0 mm 1 mps 728 mmHg 35%
    14:00 +27°C° 0 mm 1 mps 727 mmHg 33%
    15:00 +27°C° 0 mm 2 mps 727 mmHg 34%
    16:00 +27°C° 0 mm 2 mps 727 mmHg 35%
    17:00 +27°C° 0 mm 3 mps 727 mmHg 36%
    18:00 +25°C° 0 mm 3 mps 726 mmHg 41%
    19:00 +24°C° 0 mm 3 mps 726 mmHg 45%
    20:00 +21°C° 0 mm 3 mps 726 mmHg 50%
    21:00 +20°C° 0 mm 3 mps 726 mmHg 52%
    22:00 +19°C° 0 mm 2 mps 726 mmHg 54%
    23:00 +19°C° 0 mm 1 mps 726 mmHg 56%

    Tomorrow, 22 June, Saturday

    Time Temperature Precipitation Wind Pressure Humidity
    00:00 +19°C° 0 mm 1 mps 726 mmHg 56%
    01:00 +19°C° 0 mm 1 mps 726 mmHg 56%
    02:00 +18°C° 0 mm 1 mps 726 mmHg 56%
    03:00 +17°C° 0 mm 2 mps 726 mmHg 62%
    04:00 +16°C° 0 mm 2 mps 726 mmHg 67%
    05:00 +16°C° 0 mm 3 mps 727 mmHg 73%
    06:00 +17°C° 0 mm 3 mps 727 mmHg 70%
    07:00 +18°C° 0 mm 4 mps 727 mmHg 67%
    08:00 +19°C° 0 mm 4 mps 728 mmHg 65%
    09:00 +20°C° 0 mm 4 mps 728 mmHg 57%
    10:00 +21°C° 0 mm 5 mps 728 mmHg 50%
    11:00 +22°C° 0 mm 5 mps 729 mmHg 42%
    12:00 +22°C° 0 mm 6 mps 729 mmHg 43%
    13:00 +22°C° 0 mm 6 mps 729 mmHg 44%
    14:00 +22°C° 0 mm 6 mps 729 mmHg 45%
    15:00 +21°C° 0 mm 6 mps 729 mmHg 46%
    16:00 +21°C° 0 mm 6 mps 730 mmHg 47%
    17:00 +20°C° 0 mm 6 mps 730 mmHg 49%
    18:00 +19°C° 0 mm 5 mps 730 mmHg 52%
    19:00 +16°C° 0 mm 5 mps 730 mmHg 55%
    20:00 +15°C° 0 mm 4 mps 731 mmHg 59%
    21:00 +14°C° 0 mm 4 mps 731 mmHg 61%
    22:00 +12°C° 0 mm 4 mps 732 mmHg 64%
    23:00 +11°C° 0 mm 3 mps 732 mmHg 66%

    Day after tomorrow, 23 June, Sunday

    Time Temperature Precipitation Wind Pressure Humidity
    00:00 +10°C° 0 mm 3 mps 732 mmHg 68%
    01:00 +10°C° 0 mm 2 mps 732 mmHg 69%
    02:00 +9°C° 0 mm 2 mps 732 mmHg 71%
    03:00 +9°C° 0 mm 2 mps 732 mmHg 72%
    04:00 +9°C° 0 mm 2 mps 732 mmHg 73%
    05:00 +9°C° 0 mm 2 mps 733 mmHg 74%
    06:00 +10°C° 0 mm 2 mps 733 mmHg 66%
    07:00 +12°C° 0 mm 3 mps 733 mmHg 58%
    08:00 +14°C° 0 mm 3 mps 733 mmHg 49%
    09:00 +15°C° 0 mm 4 mps 733 mmHg 47%
    10:00 +17°C° 0 mm 4 mps 733 mmHg 44%
    11:00 +19°C° 0 mm 4 mps 733 mmHg 42%
    12:00 +20°C° 0 mm 5 mps 733 mmHg 40%
    13:00 +21°C° 0 mm 5 mps 732 mmHg 38%
    14:00 +22°C° 0 mm 5 mps 732 mmHg 36%
    15:00 +22°C° 0 mm 5 mps 732 mmHg 40%
    16:00 +21°C° 0 mm 5 mps 732 mmHg 44%
    17:00 +21°C° 0 mm 5 mps 732 mmHg 48%
    18:00 +21°C° 0 mm 5 mps 731 mmHg 51%
    19:00 +20°C° 0 mm 4 mps 730 mmHg 54%
    20:00 +19°C° 0 mm 4 mps 730 mmHg 58%
    21:00 +20°C° 0 mm 5 mps 729 mmHg 56%
    22:00 +20°C° 0 mm 6 mps 729 mmHg 53%
    23:00 +20°C° 0 mm 6 mps 729 mmHg 51%

    24 June, Monday

    Time Temperature Precipitation Wind Pressure Humidity
    00:00 +19°C° 0.3 mm 6 mps 728 mmHg 60%
    01:00 +17°C° 0.3 mm 5 mps 728 mmHg 68%
    02:00 +16°C° 0.3 mm 5 mps 727 mmHg 77%
    03:00 +16°C° 0.5 mm 6 mps 727 mmHg 80%
    04:00 +17°C° 0.5 mm 6 mps 727 mmHg 83%
    05:00 +17°C° 0.5 mm 6 mps 727 mmHg 86%
    06:00 +18°C° 0.1 mm 7 mps 727 mmHg 81%
    07:00 +21°C° 0.1 mm 7 mps 727 mmHg 76%
    08:00 +22°C° 0.1 mm 7 mps 727 mmHg 71%
    09:00 +23°C° 0.4 mm 7 mps 727 mmHg 68%
    10:00 +24°C° 0.4 mm 7 mps 727 mmHg 66%
    11:00 +26°C° 0.4 mm 7 mps 727 mmHg 64%
    12:00 +26°C° 1.1 mm 6 mps 727 mmHg 62%
    13:00 +27°C° 1.1 mm 5 mps 727 mmHg 60%
    14:00 +28°C° 1.1 mm 5 mps 727 mmHg 58%
    15:00 +28°C° 0.6 mm 4 mps 727 mmHg 57%
    16:00 +28°C° 0.6 mm 4 mps 727 mmHg 57%
    17:00 +28°C° 0.6 mm 3 mps 727 mmHg 56%
    18:00 +27°C° 0.1 mm 3 mps 727 mmHg 62%
    19:00 +26°C° 0.1 mm 2 mps 727 mmHg 67%
    20:00 +24°C° 0.1 mm 2 mps 726 mmHg 72%
    21:00 +23°C° 0 mm 1 mps 726 mmHg 76%
    22:00 +22°C° 0 mm 1 mps 726 mmHg 79%
    23:00 +19°C° 0 mm 0 mps 726 mmHg 82%

    25 June, Tuesday

    Time Temperature Precipitation Wind Pressure Humidity
    00:00 +21°C° 0 mm 1 mps 726 mmHg 83%
    01:00 +21°C° 0 mm 1 mps 726 mmHg 85%
    02:00 +20°C° 0 mm 1 mps 726 mmHg 86%
    03:00 +20°C° 0 mm 1 mps 726 mmHg 86%
    04:00 +20°C° 0 mm 1 mps 726 mmHg 87%
    05:00 +20°C° 0 mm 2 mps 726 mmHg 88%
    06:00 +21°C° 0.1 mm 2 mps 726 mmHg 80%
    07:00 +24°C° 0.1 mm 3 mps 726 mmHg 73%
    08:00 +26°C° 0.1 mm 3 mps 726 mmHg 66%
    09:00 +26°C° 0.1 mm 3 mps 726 mmHg 62%
    10:00 +27°C° 0.1 mm 3 mps 726 mmHg 58%
    11:00 +27°C° 0.1 mm 4 mps 726 mmHg 55%
    12:00 +27°C° 0.5 mm 3 mps 726 mmHg 56%
    13:00 +26°C° 0.5 mm 2 mps 726 mmHg 58%
    14:00 +26°C° 0.5 mm 2 mps 725 mmHg 60%
    15:00 +25°C° 2.3 mm 2 mps 725 mmHg 67%
    16:00 +24°C° 2.3 mm 2 mps 725 mmHg 74%
    17:00 +22°C° 2.3 mm 3 mps 725 mmHg 81%
    18:00 +21°C° 3.2 mm 3 mps 725 mmHg 83%
    19:00 +21°C° 3.2 mm 3 mps 725 mmHg 84%
    20:00 +20°C° 3.2 mm 4 mps 725 mmHg 86%
    21:00 +19°C° 0 mm 3 mps 725 mmHg 88%
    22:00 +19°C° 0 mm 2 mps 725 mmHg 90%
    23:00 +18°C° 0 mm 2 mps 725 mmHg 92%

    26 June, Wednesday

    Time Temperature Precipitation Wind Pressure Humidity
    00:00 +18°C° 0 mm 2 mps 725 mmHg 94%
    01:00 +18°C° 0 mm 2 mps 725 mmHg 95%
    02:00 +17°C° 0 mm 2 mps 725 mmHg 96%
    03:00 +17°C° 0 mm 2 mps 725 mmHg 96%
    04:00 +17°C° 0 mm 2 mps 725 mmHg 96%
    05:00 +17°C° 0 mm 3 mps 725 mmHg 96%
    06:00 +17°C° 0 mm 3 mps 725 mmHg 90%
    07:00 +18°C° 0 mm 4 mps 725 mmHg 84%
    08:00 +19°C° 0 mm 4 mps 725 mmHg 78%
    09:00 +20°C° 0 mm 3 mps 725 mmHg 77%
    10:00 +20°C° 0 mm 3 mps 725 mmHg 75%
    11:00 +20°C° 0 mm 2 mps 724 mmHg 74%
    12:00 +20°C° 0.8 mm 2 mps 724 mmHg 78%
    13:00 +19°C° 0.8 mm 3 mps 724 mmHg 82%
    14:00 +18°C° 0.8 mm 3 mps 723 mmHg 87%
    15:00 +18°C° 0.7 mm 3 mps 723 mmHg 86%
    16:00 +17°C° 0.7 mm 3 mps 723 mmHg 85%
    17:00 +17°C° 0.7 mm 3 mps 723 mmHg 85%
    18:00 +17°C° 0.1 mm 3 mps 722 mmHg 85%
    19:00 +17°C° 0.1 mm 2 mps 722 mmHg 86%
    20:00 +17°C° 0.1 mm 2 mps 722 mmHg 86%
    21:00 +17°C° 0 mm 2 mps 721 mmHg 88%
    22:00 +16°C° 0 mm 2 mps 721 mmHg 90%
    23:00 +16°C° 0 mm 2 mps 721 mmHg 92%
    Show more